Location: Stillwell
(40.4602°N, 82.0928°W)
Time: 09:40:27
(UTC-04:00)

Cosmos 1536 Rocket - Pass Details

Date: 25 May 2018
Orbit: 606 x 632 km, 82.5° (Epoch: 17 June)

Event Time Altitude Azimuth Distance (km) Brightness Sun altitude
Exits shadow 23:05:18 20° 213° (SSW) 1,437 5.2 -20.3°
Maximum altitude 23:08:07 50° 281° (W) 806 4.3 -20.6°
Drops below altitude 10° 23:12:27 10° 357° (N) 2,017 7.0 -21.1°
Sets 23:14:46 0° 3° (N) 2,932 7.9 -21.3°
